Regional Weather Roundup
Issued by NWS Grand Forks, ND

Home | Current Version | Previous Version | Graphics & Text | Print | Product List | Glossary On
Versions: 1 2 3 4 5 6 7 8 9 10 11 12 13 14 15 16 17 18 19 20 21 22 23 24 25 26 27 28 29 30 31 32 33 34 35 36 37 38 39 40 41 42 43 44 45 46 47 48 49 50
000
ASUS43 KFGF 230610
RWRFGF
PRAIRIE TO PINES  WEATHER ROUNDUP
NATIONAL WEATHER SERVICE EASTERN NORTH DAKOTA/GRAND FORKS ND
1200 AM CST THU FEB 23 2017

 **SATELLITE DATA USED TO AUGMENT SKY COVER AT AUTOMATED STATIONS**
 *****  WEATHER ACROSS EASTERN NORTH DAKOTA  *****

CITY           SKY/WX    TMP DP  RH WIND       PRES   REMARKS
GRAND FORKS    MOCLDY    29  21  72 NW8       29.97R WCI  21
6HR MIN TEMP:  29; 6HR MAX TEMP:  34;

GRAND FRKS AFB FAIR      28  24  83 N8        29.97S WCI  20
DEVILS LAKE    FAIR      27  24  89 NW8       29.97S WCI  19
6HR MIN TEMP:  27; 6HR MAX TEMP:  31;

FARGO          FAIR      31  27  85 N13       29.95R WCI  21
WAHPETON ARPT  FAIR      30  27  86 NW8       29.95R WCI  23
$$

 ***** WEATHER ACROSS CENTRAL AND WESTERN NORTH DAKOTA  *****

CITY           SKY/WX    TMP DP  RH WIND       PRES   REMARKS
BISMARCK       FAIR      31  25  78 N5        30.00S
6HR MIN TEMP:  31; 6HR MAX TEMP:  34;

MINOT          CLOUDY    33  28  81 W9        29.97S
6HR MIN TEMP:  30; 6HR MAX TEMP:  33;

JAMESTOWN      FAIR      27  25  92 NW7       29.96R WCI  19
6HR MIN TEMP:  25; 6HR MAX TEMP:  32;

MINOT AFB      CLOUDY    31  28  90 NW7       29.97R WCI  24
GARRISON         N/A     27  24  89 NW8       29.98R WCI  19
WILLISTON      CLOUDY    28  25  88 SW6       30.01S WCI  22
6HR MIN TEMP:  27; 6HR MAX TEMP:  32; 6HR PCP: TRACE;

DICKINSON      CLOUDY    25  22  88 N6        29.94F WCI  18
6HR MIN TEMP:  25; 6HR MAX TEMP:  29; 6HR PCP: TRACE;

HETTINGER      CLOUDY    27  24  89 NE8       29.97R WCI  19
6HR MIN TEMP:  25; 6HR MAX TEMP:  31; 6HR PCP: TRACE;

$$

 *****  OTHER AIRPORT OBSERVATIONS IN OUR AREA  *****

CITY           SKY/WX    TMP DP  RH WIND       PRES   REMARKS
WALHALLA       NOT AVBL
GRAFTON AIRPOR CLOUDY    28  25  86 NW8       29.99S WCI  20
VALLEY CITY AR FAIR      27  27 100 N5        29.97F WCI  21
CANDO          NOT AVBL
CAVALIER APRT    N/A     28  23  80 N9        29.99R WCI  20
GWINNER        FAIR      28  27  93 NW10      29.96S WCI  19
SHEYENNE NWR     N/A     27  24  89 N5        29.95S WCI  22
ROLLA          FAIR      23  23 100 NW7       29.97R WCI  15
 ***** THE ABOVE OBSERVATIONS ARE NON NWS ARE NOT QUALITY
       CONTROLLED AND MAY MIS-REPORT RAIN FOR SNOW...
$$

  *****  WEATHER ACROSS NORTHERN MINNESOTA  *****

CITY           SKY/WX    TMP DP  RH WIND       PRES   REMARKS
FLAG ISLAND    CLOUDY    27  18  69 N18       29.91R WCI  13
WARROAD        CLOUDY    27  19  74 N9        29.93R WCI  17
ROSEAU         CLOUDY    27  19  74 N7        29.93R WCI  19
HALLOCK        CLOUDY    28  25  86 N9        29.97R WCI  20
THF RVR FALLS  FAIR      26  24  92 NW9       29.95R WCI  17
6HR MIN TEMP:  26; 6HR MAX TEMP:  33;

BAUDETTE       FAIR      24  16  71 N14       29.89R WCI  12
6HR MIN TEMP:  24; 6HR MAX TEMP:  30;

WASKISH        FAIR      25  19  80 N7        29.89R WCI  17
CROOKSTON      CLOUDY    30  27  86 N10       29.97R WCI  21
GREENBUSH NDAW   N/A     19  18  93 NW5         N/A  WCI  13
$$
  *****  WEATHER ACROSS CENTRAL AND WEST MINNESOTA  *****

CITY           SKY/WX    TMP DP  RH WIND       PRES   REMARKS
FOSSTON        FAIR      27  25  93 NW8       29.92R WCI  18
BEMIDJI        CLOUDY    25  22  90 NW5       29.88R WCI  19
PARK RAPIDS    FAIR      25  20  81 NW6       29.87R WCI  18
6HR MIN TEMP:  24; 6HR MAX TEMP:  34; 6HR PCP:  0.01;

ELBOW LAKE     FAIR      30  27  89 NW8       29.92R WCI  23
WADENA         FAIR      27  25  93 NW7       29.88R WCI  19
DETROIT LAKES  FAIR      28  27  93 N8        29.91R WCI  20
MOORHEAD       FAIR      30  27  86 N13       29.96R WCI  20
FERGUS FALLS   FAIR      28  27  93 N8        29.96R WCI  20
MORRIS MN      CLOUDY    34  28  80 N15       29.89S WCI  24
STAPLES        FAIR      27  25  93 NW7       29.87R WCI  19
$$
  *****  WEATHER ELSEWHERE ACROSS MINNESOTA  *****

CITY           SKY/WX    TMP DP  RH WIND       PRES   REMARKS
DULUTH         FLURRIES  33  30  88 N14       29.75R WCI  23
6HR MIN TEMP:  33; 6HR MAX TEMP:  37; 6HR PCP:  0.16;

INTRNTL FALLS  MOCLDY    26  20  77 NW9       29.84R WCI  17
6HR MIN TEMP:  25; 6HR MAX TEMP:  32;

ELY            CLOUDY    28  27  93 N5        29.77R WCI  23
CLOQUET        CLOUDY    34  30  86 NW12      29.77R
WHEATON        FAIR      30  27  86 NW10      29.96R WCI  21
BRAINERD       FAIR      29  26  89 N10       29.85R WCI  20
6HR MIN TEMP:  29; 6HR MAX TEMP:  33; 6HR PCP:  0.03;

HIBBING        CLOUDY    28  27  96 N10       29.80R WCI  19
6HR MIN TEMP:  28; 6HR MAX TEMP:  32; 6HR PCP:  0.07;

ALEXANDRIA     FAIR      31  26  82 N12       29.88R WCI  22
6HR MIN TEMP:  31; 6HR MAX TEMP:  35; 6HR PCP:  0.02;

SAINT CLOUD    CLOUDY    33  30  88 N14G22    29.82R WCI  23
6HR MIN TEMP:  33; 6HR MAX TEMP:  43; 6HR PCP: TRACE;

MINNEAPOLIS    CLOUDY    38  31  76 N17G25    29.79R
6HR MIN TEMP:  38; 6HR MAX TEMP:  50;

$$

  *****  WEATHER ACROSS SOUTH DAKOTA  *****

CITY           SKY/WX    TMP DP  RH WIND       PRES   REMARKS
SIOUX FALLS    CLOUDY    35  32  88 N12       29.90R
6HR MIN TEMP:  35; 6HR MAX TEMP:  48;

BROOKINGS      CLOUDY    30  28  93 N14       29.90R WCI  20
WATERTOWN      CLOUDY    29  24  82 N18       29.90R WCI  16
6HR MIN TEMP:  29; 6HR MAX TEMP:  35;

HURON          CLOUDY    32  26  78 N14       29.95R WCI  22
6HR MIN TEMP:  32; 6HR MAX TEMP:  39;

SISSETON         N/A     30  27  88 N14       29.92S WCI  19
ABERDEEN       FAIR      29  23  78 N15       29.94F WCI  18
6HR MIN TEMP:  29; 6HR MAX TEMP:  33;

MITCHELL       CLOUDY    33  30  88 N16       29.94S WCI  23
PIERRE         CLOUDY    32  27  81 N9        29.97R WCI  24
6HR MIN TEMP:  32; 6HR MAX TEMP:  38;

MOBRIDGE       CLOUDY    33  25  72 NE9       29.95R
RAPID CITY     CLOUDY    31  27  85 NE13      29.89F WCI  21
6HR MIN TEMP:  31; 6HR MAX TEMP:  38;

$$

  *****  SOME WEATHER IN NEARBY STATES *****

CITY           SKY/WX    TMP DP  RH WIND       PRES   REMARKS
GLASGOW MT     FAIR      27  25  92 CALM      29.99S FOG
6HR MIN TEMP:  24; 6HR MAX TEMP:  32;

GREAT FALLS MT CLOUDY    30  25  81 NW3       29.94F
6HR MIN TEMP:  30; 6HR MAX TEMP:  35;

CHEYENNE WY    CLOUDY    30  28  92 NE6       29.73F WCI  24
6HR MIN TEMP:  30; 6HR MAX TEMP:  35; 6HR PCP:  0.01;

SCOTTSBLUFF NE LGT RAIN  36  32  85 NE14      29.80F
6HR MIN TEMP:  36; 6HR MAX TEMP:  52; 6HR PCP:  0.02;

OMAHA NE       FAIR      43  36  76 N9        29.79F
6HR MIN TEMP:  41; 6HR MAX TEMP:  64;

DES MOINES IA  FAIR      49  43  80 N9        29.78R
6HR MIN TEMP:  49; 6HR MAX TEMP:  67;

DAVENPORT IA   FAIR      48  41  76 W6        29.69R
6HR MIN TEMP:  48; 6HR MAX TEMP:  65;

CHICAGO IL     FAIR      59  51  75 SW15G22   29.61S
6HR MIN TEMP:  59; 6HR MAX TEMP:  65;

EAU CLAIRE WI  CLOUDY    41  35  79 N14G22    29.68R
6HR MIN TEMP:  41; 6HR MAX TEMP:  52;

LA CROSSE WI   CLOUDY    46  41  82 NW7       29.66R
6HR MIN TEMP:  41; 6HR MAX TEMP:  54;

$$

  *****  SOME NATIONAL WEATHER *****

CITY           SKY/WX    TMP DP  RH WIND       PRES   REMARKS
LA GUARDIA NY  NOT AVBL
RALEIGH NC     CLOUDY    55  52  89 CALM      29.93F
6HR MIN TEMP:  55; 6HR MAX TEMP:  64;

ATLANTA GA     MOCLDY    59  57  93 NE9       29.89R
6HR MIN TEMP:  57; 6HR MAX TEMP:  66; 6HR PCP: TRACE;

NEW ORLEANS LA FAIR      59  56  89 SW3       29.84S
6HR MIN TEMP:  59; 6HR MAX TEMP:  72;

OKLAHOMA CITY  MOCLDY    56  44  64 SE10      29.65F
6HR MIN TEMP:  56; 6HR MAX TEMP:  71;

ALBUQUERQUE NM MOCLDY    49  29  46 SE7       29.85F
6HR MIN TEMP:  49; 6HR MAX TEMP:  65;

SALT LAKE CITY LGT SNOW  31  29  92 S3        29.78F FOG
6HR MIN TEMP:  31; 6HR MAX TEMP:  38; 6HR PCP:  0.06;

LOS ANGELES CA FAIR      56  34  43 NW7G18    30.07R
6HR MIN TEMP:  56; 6HR MAX TEMP:  61;

BOISE ID       FLURRIES  33  30  88 NW16      29.84S WCI  23
6HR MIN TEMP:  32; 6HR MAX TEMP:  39; 6HR PCP: TRACE;

SEATTLE WA     FAIR



USA.gov is the U.S. government's official web portal to all federal, state and local government web resources and services.